[[{"header":{"parameterUnit":"m.s-1","parameterCategory":1,"la1":30.2991,"la2":30.254,"lo1":-89.0895,"lo2":-89.0444,"dy":0.0017,"dx":0.0017,"nx":28,"ny":28,"refTime":"2024-10-05T03:00:00:Z","depth":0,"parameterNumber":2,"parameterNumberName":"U-component_of_WINDS"},"data":[0,0,0,0,0,0,0,0,0,0,0,0,0,0,0,0,0,0,0,0,0,0,0,0,0,0,0,0,0,0,0,0,0,0,0,0,0,0,0,0,0,0,0,0,0,0,0,0,0,0,0,0,0,0,0,0,0,0,-5.1082,-5.1082,0,-5.1058,-5.1058,-5.1057,-5.0942,-5.0939,-5.0936,-5.0934,-5.091,-5.0912,-5.0914,0,0,0,0,0,0,0,0,0,0,0,0,0,-5.1029,-5.1031,-5.1082,-5.1082,-5.1081,-5.1058,-5.1058,-5.1057,-5.0942,-5.0939,-5.0935,-5.0932,-5.0909,-5.0912,-5.0914,0,0,0,0,0,0,0,0,0,0,0,0,0,-5.1034,-5.1031,-5.1082,-5.1021,-5.1015,-5.1058,-5.1058,-5.1057,-5.0943,-5.0939,-5.0935,-5.0931,-5.0909,-5.0911,-5.0914,-5.1014,0,0,-5.0923,-5.0924,0,0,0,0,0,0,0,0,-5.1033,-5.1036,-5.103,-5.1025,-5.1019,-5.0998,-5.103,-5.1043,-5.0944,-5.097,-5.0934,-5.0929,-5.0943,-5.0943,-5.0947,-5.1013,-5.1012,-5.0923,-5.0925,-5.0926,-5.0927,0,0,0,0,0,0,0,-5.1033,-5.1036,-5.1072,-5.103,-5.1023,-5.0995,-5.0991,-5.1032,-5.098,-5.0968,-5.0959,-5.0958,-5.0939,-5.0945,-5.0946,-5.1011,-5.0923,-5.0926,-5.0927,-5.0929,-5.1159,-5.1164,0,0,0,0,0,0,-5.1041,-5.1036,-5.1073,-5.1072,-5.1016,-5.1,-5.0995,-5.1009,-5.0979,-5.0971,-5.0962,-5.0953,-5.0942,-5.0942,-5.0944,-5.106,-5.0926,-5.0929,-5.0931,-5.1155,-5.116,-5.1165,0,0,0,0,0,0,-5.1041,-5.1046,-5.1074,-5.1052,-5.1053,-5.1005,-5.1022,-5.1011,-5.1016,-5.0974,-5.0965,-5.0977,-5.0939,-5.094,-5.0998,-5.1058,-5.093,-5.0933,-5.115,-5.1157,-5.1163,-5.1293,0,0,0,0,0,0,-5.104,-5.1046,-5.1083,-5.1053,-5.1055,-5.1128,-5.1025,-5.1013,-5.1022,-5.101,-5.0986,-5.0978,-5.0935,-5.0994,-5.1001,-5.106,-5.0935,-5.1144,-5.1153,-5.1161,-5.1283,-5.1303,-5.132,0,0,0,0,0,-5.1038,-5.1121,-5.1086,-5.1091,-5.11,-5.1131,-5.1132,-5.1081,-5.1027,-5.1064,-5.1037,-5.0979,-5.105,-5.1001,-5.1007,-5.1068,-5.114,-5.115,-5.116,-5.1275,-5.1299,-5.132,0,0,0,0,0,0,-5.1158,-5.1115,-5.1076,-5.1151,-5.1146,-5.1112,-5.1157,-5.1108,-5.1118,-5.1107,-5.1043,-5.1039,-5.1106,-5.1092,-5.1038,-5.1164,-5.1085,-5.1097,-5.117,-5.1193,-5.1212,-5.1214,-5.0937,0,0,0,0,0,-5.1194,-5.1223,-5.1183,-5.1254,-5.1253,-5.1206,-5.1218,-5.1179,-5.1171,-5.1168,-5.1145,-5.114,-5.1161,-5.1176,-5.1193,-5.128,-5.1274,-5.1325,-5.1344,-5.1359,-5.1371,-5.1417,-5.144,-5.1198,-5.1198,-5.1197,0,0,-5.1267,-5.1247,-5.1269,-5.1277,-5.1268,-5.1301,-5.1205,-5.1242,-5.1265,-5.1173,-5.1226,-5.121,-5.12,-5.1273,-5.1304,-5.1264,-5.1436,-5.1372,-5.1385,-5.1387,-5.143,-5.1453,-5.1473,-5.1204,-5.1203,-5.1202,0,0,-5.1417,-5.1404,-5.1462,-5.1455,-5.1443,-5.1412,-5.1426,-5.1399,-5.1385,-5.1437,-5.1369,-5.1396,-5.1434,-5.143,-5.1433,-5.1583,-5.153,-5.159,-5.1688,-5.1734,-5.1753,-5.177,-5.1825,-5.1845,-5.1601,-5.1602,-5.1602,0,-5.1509,-5.1554,-5.1498,-5.154,-5.1546,-5.1465,-5.1523,-5.152,-5.1514,-5.1521,-5.1475,-5.1522,-5.1509,-5.1581,-5.1618,-5.1623,-5.1638,-5.1593,-5.1755,-5.1771,-5.1786,-5.1838,-5.1858,-5.1609,-5.1608,-5.1607,-5.1607,0,-5.1669,-5.1702,-5.175,-5.1747,-5.1759,-5.1809,-5.1761,-5.178,-5.174,-5.1714,-5.1769,-5.1751,-5.1764,-5.1777,-5.1739,-5.1845,-5.182,-5.1766,-5.1686,-5.1818,-5.1865,-5.1884,-5.162,-5.1617,-5.1615,-5.1613,0,0,-5.1894,-5.186,-5.1879,-5.1878,-5.1859,-5.1883,-5.193,-5.1943,-5.1961,-5.196,-5.1999,-5.2033,-5.1983,-5.1987,-5.1947,-5.1988,-5.211,-5.1928,-5.1927,-5.1964,-5.2227,-5.2269,-5.2293,-5.2075,-5.2078,-5.2081,-5.2229,0,-5.2038,-5.2117,-5.2068,-5.2155,-5.2185,-5.2108,-5.215,-5.2143,-5.212,-5.2143,-5.2117,-5.2143,-5.2074,-5.2076,-5.2113,-5.2087,-5.2162,-5.2076,-5.2111,-5.2113,-5.2117,-5.2317,-5.2361,-5.2501,-5.2247,-5.225,-5.2252,0,-5.2217,-5.2225,-5.2315,-5.2292,-5.2303,-5.2341,-5.2349,-5.2371,-5.2363,-5.2343,-5.2348,-5.2299,-5.2344,-5.2266,-5.2328,-5.2271,-5.2282,-5.2272,-5.2276,-5.2278,-5.2191,-5.2326,-5.2545,-5.2566,-5.228,-5.2278,-5.2276,0,-5.2374,-5.2407,-5.2465,-5.2466,-5.244,-5.2469,-5.246,-5.2447,-5.2459,-5.2466,-5.2473,-5.2485,-5.2493,-5.2504,-5.246,-5.2406,-5.2529,-5.2446,-5.2515,-5.2517,-5.2545,-5.2544,-5.277,-5.2551,-5.2551,-5.2551,-5.255,0,-5.2541,-5.26,-5.2536,-5.2572,-5.2635,-5.2579,-5.2643,-5.2626,-5.2616,-5.2648,-5.2582,-5.2613,-5.2552,-5.2578,-5.2544,-5.2602,-5.2605,-5.2591,-5.2582,-5.2598,-5.26,-5.2605,-5.2595,-5.2556,-5.2555,-5.2554,-5.2553,0,-5.2727,-5.2687,-5.2746,-5.2717,-5.2711,-5.2759,-5.2735,-5.2767,-5.274,-5.2781,-5.2788,-5.2745,-5.2772,-5.2729,-5.275,-5.2727,-5.2808,-5.2783,-5.2812,-5.2805,-5.2877,-5.2871,-5.3115,-5.3145,-5.2906,-5.2908,-5.291,0,-5.2837,-5.288,-5.2857,-5.2873,-5.2868,-5.2896,-5.2907,-5.2853,-5.2868,-5.2863,-5.2896,-5.2918,-5.2932,-5.2979,-5.295,-5.2967,-5.2942,-5.3026,-5.2944,-5.296,-5.2945,-5.2944,-5.2948,-5.3044,-5.3046,-5.3049,-5.3051,0,-5.3037,-5.3015,-5.3034,-5.3047,-5.3062,-5.3069,-5.3072,-5.3089,-5.3033,-5.3053,-5.3079,-5.3091,-5.3113,-5.3136,-5.3146,-5.3136,-5.3085,-5.3077,-5.3094,-5.3111,-5.3127,-5.3121,-5.2859,-5.3071,-5.3069,-5.3068,-5.3067,-5.3066,-5.3189,-5.3224,-5.3214,-5.3238,-5.3234,-5.3238,-5.3268,-5.3245,-5.3266,-5.328,-5.3247,-5.3283,-5.3274,-5.3282,-5.3278,-5.3306,-5.3269,-5.3293,-5.33,-5.3307,-5.3319,-5.3122,-5.3307,-5.3306,-5.3306,-5.3305,-5.3305,0,-5.3387,-5.3376,-5.3398,-5.3404,-5.3424,-5.3373,-5.3374,-5.3393,-5.3425,-5.3422,-5.3437,-5.3469,-5.3491,-5.3465,-5.3482,-5.3509,-5.3486,-5.3515,-5.3513,-5.3513,-5.335,-5.3334,-5.3534,-5.3534,-5.3534,-5.3534,-5.3534,-5.3534,-5.3492,-5.355,-5.3527,-5.3583,-5.3572,-5.3606,-5.3611,-5.3615,-5.3612,-5.3651,-5.3669,-5.3651,-5.3639,-5.3655,-5.3673,-5.3665,-5.3675,-5.3713,-5.3697,-5.3546,-5.3524,-5.3502,-5.3487,-5.3715,-5.3716,-5.3857,-5.3858,-5.3859]},{"header":{"parameterUnit":"m.s-1","parameterCategory":1,"la1":30.2991,"la2":30.254,"lo1":-89.0895,"lo2":-89.0444,"dy":0.0017,"dx":0.0017,"nx":28,"ny":28,"refTime":"2024-10-05T03:00:00:Z","depth":0,"parameterNumber":3,"parameterNumberName":"V-component_of_WINDS"},"data":[0,0,0,0,0,0,0,0,0,0,0,0,0,0,0,0,0,0,0,0,0,0,0,0,0,0,0,0,0,0,0,0,0,0,0,0,0,0,0,0,0,0,0,0,0,0,0,0,0,0,0,0,0,0,0,0,0,0,-2.1639,-2.164,0,-2.1706,-2.1707,-2.1708,-2.1685,-2.1684,-2.1683,-2.1681,-2.1752,-2.1755,-2.1758,0,0,0,0,0,0,0,0,0,0,0,0,0,-2.1493,-2.1495,-2.1639,-2.164,-2.1641,-2.1706,-2.1707,-2.1708,-2.1686,-2.1684,-2.1682,-2.1681,-2.1751,-2.1754,-2.1758,0,0,0,0,0,0,0,0,0,0,0,0,0,-2.1558,-2.1496,-2.1639,-2.1637,-2.1638,-2.1706,-2.1707,-2.1708,-2.1686,-2.1684,-2.1682,-2.168,-2.1749,-2.1754,-2.1759,-2.1833,0,0,-2.1774,-2.1776,0,0,0,0,0,0,0,0,-2.1554,-2.1563,-2.1637,-2.1638,-2.1638,-2.1685,-2.1681,-2.175,-2.1687,-2.1668,-2.1681,-2.1679,-2.1731,-2.1738,-2.1755,-2.1836,-2.1839,-2.1774,-2.1777,-2.1779,-2.1781,0,0,0,0,0,0,0,-2.155,-2.156,-2.1666,-2.1638,-2.1639,-2.1634,-2.1641,-2.1694,-2.1711,-2.1669,-2.1668,-2.1676,-2.1731,-2.175,-2.1757,-2.184,-2.1774,-2.1778,-2.1781,-2.1783,-2.1985,-2.1987,0,0,0,0,0,0,-2.1544,-2.1556,-2.1663,-2.1668,-2.159,-2.1638,-2.1646,-2.1672,-2.1711,-2.1714,-2.1678,-2.1675,-2.1743,-2.1751,-2.1759,-2.1849,-2.1779,-2.1784,-2.1786,-2.1983,-2.1986,-2.1988,0,0,0,0,0,0,-2.1541,-2.1554,-2.1661,-2.1612,-2.1625,-2.1643,-2.1673,-2.1675,-2.1694,-2.1717,-2.172,-2.1694,-2.1742,-2.1752,-2.1814,-2.1851,-2.1786,-2.179,-2.198,-2.1984,-2.1987,-2.2028,0,0,0,0,0,0,-2.1537,-2.1553,-2.1581,-2.1612,-2.1628,-2.1715,-2.1675,-2.1678,-2.1702,-2.1699,-2.1733,-2.1737,-2.1741,-2.1807,-2.1819,-2.1856,-2.1794,-2.1977,-2.1981,-2.1986,-2.2024,-2.2033,-2.204,0,0,0,0,0,-2.1532,-2.159,-2.1583,-2.1596,-2.1663,-2.1717,-2.1726,-2.1729,-2.1705,-2.1734,-2.1748,-2.1736,-2.1844,-2.1814,-2.1827,-2.1866,-2.1974,-2.198,-2.1985,-2.202,-2.2031,-2.204,0,0,0,0,0,0,-2.1564,-2.1595,-2.1586,-2.1656,-2.1684,-2.1713,-2.1749,-2.1741,-2.1776,-2.1772,-2.1775,-2.1783,-2.1847,-2.1862,-2.1828,-2.194,-2.1906,-2.1914,-2.1927,-2.1938,-2.1946,-2.1942,-2.1798,0,0,0,0,0,-2.1579,-2.162,-2.1644,-2.1704,-2.1718,-2.1731,-2.1755,-2.1755,-2.1784,-2.1796,-2.1815,-2.1845,-2.1885,-2.1912,-2.1951,-2.2025,-2.2033,-2.2058,-2.2067,-2.2073,-2.2081,-2.2122,-2.2134,-2.2006,-2.2006,-2.2006,0,0,-2.161,-2.1632,-2.1658,-2.1711,-2.1732,-2.1775,-2.1742,-2.1788,-2.182,-2.1803,-2.1864,-2.1879,-2.1911,-2.198,-2.2011,-2.1995,-2.2118,-2.208,-2.2086,-2.209,-2.2129,-2.2141,-2.2152,-2.201,-2.2009,-2.2009,0,0,-2.1691,-2.1711,-2.1763,-2.1785,-2.1817,-2.1826,-2.1838,-2.1868,-2.1878,-2.1938,-2.1926,-2.1964,-2.2034,-2.2058,-2.208,-2.2168,-2.2158,-2.218,-2.2225,-2.2265,-2.2275,-2.2284,-2.2316,-2.2328,-2.2187,-2.2187,-2.2188,0,-2.1726,-2.179,-2.1791,-2.1839,-2.1862,-2.1848,-2.1901,-2.1922,-2.1966,-2.1983,-2.1964,-2.2052,-2.2073,-2.2147,-2.2168,-2.2186,-2.2201,-2.2177,-2.2273,-2.2282,-2.2291,-2.2322,-2.2334,-2.219,-2.219,-2.219,-2.2189,0,-2.1833,-2.1877,-2.1915,-2.1958,-2.1985,-2.2036,-2.2044,-2.2072,-2.2069,-2.208,-2.2141,-2.2166,-2.2209,-2.2227,-2.2225,-2.2301,-2.229,-2.2272,-2.2239,-2.2305,-2.2335,-2.2347,-2.2194,-2.2193,-2.2192,-2.2191,0,0,-2.1936,-2.1978,-2.1992,-2.2011,-2.2045,-2.208,-2.2129,-2.2171,-2.2196,-2.2226,-2.2269,-2.2328,-2.2311,-2.2335,-2.2336,-2.237,-2.244,-2.2348,-2.2349,-2.2366,-2.2527,-2.2541,-2.2555,-2.2432,-2.2435,-2.2436,-2.2524,0,-2.202,-2.2107,-2.2109,-2.2189,-2.223,-2.2216,-2.2259,-2.2285,-2.2296,-2.2333,-2.2345,-2.2387,-2.2361,-2.2376,-2.241,-2.2424,-2.2472,-2.2418,-2.2473,-2.2475,-2.2467,-2.257,-2.2586,-2.2668,-2.2536,-2.2538,-2.2539,0,-2.2131,-2.2164,-2.2248,-2.2276,-2.2294,-2.2333,-2.2371,-2.2406,-2.2436,-2.2441,-2.2468,-2.2462,-2.2513,-2.2477,-2.2547,-2.251,-2.2533,-2.2543,-2.2546,-2.2553,-2.2512,-2.2581,-2.2694,-2.2707,-2.2557,-2.2555,-2.2554,0,-2.2199,-2.2265,-2.2324,-2.2341,-2.2375,-2.2403,-2.2419,-2.2445,-2.2471,-2.2504,-2.2521,-2.256,-2.2582,-2.2613,-2.2618,-2.2591,-2.269,-2.2653,-2.2697,-2.2697,-2.272,-2.2719,-2.2839,-2.2731,-2.2731,-2.2731,-2.2731,0,-2.2294,-2.2347,-2.2356,-2.2392,-2.245,-2.2451,-2.2509,-2.2522,-2.2546,-2.2585,-2.2575,-2.2612,-2.2617,-2.2655,-2.266,-2.2718,-2.2728,-2.2734,-2.2735,-2.2736,-2.2736,-2.2753,-2.2748,-2.2734,-2.2733,-2.2733,-2.2732,0,-2.2382,-2.239,-2.2454,-2.248,-2.2488,-2.253,-2.2553,-2.2588,-2.2597,-2.2647,-2.2659,-2.2673,-2.2718,-2.2726,-2.2779,-2.2782,-2.2852,-2.2846,-2.2842,-2.2842,-2.2885,-2.2882,-2.3022,-2.3041,-2.292,-2.2921,-2.2922,0,-2.2443,-2.2483,-2.2514,-2.2539,-2.2556,-2.2596,-2.2622,-2.2624,-2.2651,-2.2687,-2.2718,-2.2761,-2.2796,-2.2868,-2.2884,-2.2924,-2.292,-2.2966,-2.2926,-2.2926,-2.2923,-2.2921,-2.2925,-2.2975,-2.2976,-2.2977,-2.2978,0,-2.255,-2.2552,-2.2589,-2.2627,-2.2658,-2.2688,-2.2717,-2.2738,-2.2744,-2.2775,-2.282,-2.2847,-2.29,-2.2944,-2.2984,-2.3,-2.2991,-2.299,-2.3003,-2.3005,-2.3002,-2.3006,-2.2865,-2.2988,-2.2987,-2.2986,-2.2985,-2.2985,-2.2628,-2.2663,-2.269,-2.2731,-2.2753,-2.278,-2.2814,-2.2827,-2.2864,-2.2908,-2.2906,-2.2956,-2.2984,-2.3037,-2.3056,-2.3095,-2.308,-2.3098,-2.3103,-2.3108,-2.3113,-2.2994,-2.3102,-2.3102,-2.3102,-2.3101,-2.3101,0,-2.2736,-2.2753,-2.279,-2.2831,-2.2863,-2.285,-2.2881,-2.2909,-2.2953,-2.2979,-2.3014,-2.3066,-2.3108,-2.3126,-2.3167,-2.3195,-2.3192,-2.3206,-2.3205,-2.3209,-2.3123,-2.3108,-2.3208,-2.3208,-2.3208,-2.3208,-2.3208,-2.3208,-2.2796,-2.2855,-2.286,-2.2929,-2.2945,-2.2994,-2.3012,-2.3037,-2.3059,-2.3117,-2.3152,-2.3163,-2.3186,-2.3229,-2.3267,-2.3271,-2.3288,-2.3305,-2.3307,-2.3226,-2.3215,-2.3205,-2.3192,-2.3308,-2.3308,-2.3391,-2.3392,-2.3392]}]]